Sarasota, FL

2:37 PM EDT on October 23, 2019 (GMT -0400)
Sarasota-bradenton

Weather History for KSRQ - August, 2019

Change the Weather History Date:

Thursday, August 1, 2019

  Actual Average Record
Temperature  
Mean Temperature 84 °F 82 °F  
Max Temperature 93 °F 90 °F 101 °F (1972)
Min Temperature 74 °F 75 °F 65 °F (1968)
Degree Days  
Heating Degree Days 0 0  
Month to date heating degree days 0 0  
Since 1 June heating degree days 0 0  
Since 1 July heating degree days 0 0  
Cooling Degree Days 19 17  
Month to date cooling degree days 19 17  
Year to date cooling degree days 2290 1779  
Since 1 June cooling degree days 1133 1028  
Growing Degree Days 32 (Base 50)    
Moisture  
Dew Point 73 °F    
Average Humidity 84    
Maximum Humidity 100    
Minimum Humidity 49    
Precipitation  
Precipitation 0.58 in 0.28 in 5.90 in (1949)
Month to date precipitation 0.58 0.28  
Year to date precipitation 29.11 29.47  
Sea Level Pressure  
Sea Level Pressure 29.99 in    
Wind  
Wind Speed 7 mph (ENE)    
Max Wind Speed 23 mph    
Max Gust Speed 33 mph    
Visibility 9 miles    
Events Rain , Thunderstorm    
T = Trace of Precipitation, MM = Missing Value Source: NWS Daily Summary

Daily Weather History Graph

Daily Weather History Graph

Search for Another Location

Airport or City:

Astronomy

Aug. 01, 2019 Rise Set
Actual Time 6:53 AM EDT 8:19 PM EDT
Civil Twilight 6:28 AM EDT 8:44 PM EDT
Nautical Twilight 5:58 AM EDT 9:14 PM EDT
Astronomical Twilight 5:27 AM EDT 9:45 PM EDT
Moon 7:18 AM EDT (8/1) 9:07 PM EDT (8/1)
Length of Visible Light 14h 15m
Length of Day
13h 25m
New Moon, 0% of the Moon is Illuminated
Aug 1
New Moon
Aug 7
First Quarter
Aug 15
Full
Aug 23
Last Quarter
Aug 30
New

Hourly Weather History & Observations

Time (EDT) Temp. Heat Index Dew Point Humidity Pressure Visibility Wind Dir Wind Speed Gust Speed Precip Events Conditions
12:53 AM 75.0 °F - 69.1 °F 82% 29.99 in 10.0 mi ESE 10.4 mph - N/A   Clear
1:53 AM 73.9 °F - 69.1 °F 85% 29.98 in 10.0 mi ESE 8.1 mph - N/A   Clear
2:53 AM 73.9 °F - 70.0 °F 87% 29.98 in 10.0 mi NE 6.9 mph - N/A   Clear
3:53 AM 73.9 °F - 69.1 °F 85% 29.99 in 10.0 mi NE 3.5 mph - N/A   Clear
4:53 AM 73.9 °F - 70.0 °F 87% 30.00 in 10.0 mi NE 5.8 mph - N/A   Clear
5:53 AM 73.9 °F - 69.1 °F 85% 29.99 in 10.0 mi NE 5.8 mph - N/A   Clear
6:53 AM 73.9 °F - 70.0 °F 87% 30.00 in 10.0 mi NE 6.9 mph - N/A   Scattered Clouds
7:53 AM 75.9 °F - 70.0 °F 82% 30.02 in 10.0 mi NE 4.6 mph - N/A   Clear
8:53 AM 79.0 °F - 73.0 °F 82% 30.02 in 10.0 mi ENE 8.1 mph - N/A   Clear
9:53 AM 82.9 °F 90.2 °F 75.0 °F 77% 30.02 in 10.0 mi ENE 6.9 mph - N/A   Clear
10:53 AM 86.0 °F 96.0 °F 75.9 °F 72% 30.03 in 10.0 mi ENE 6.9 mph - N/A   Clear
11:53 AM 88.0 °F 96.5 °F 73.9 °F 63% 30.03 in 10.0 mi SE 5.8 mph - N/A   Partly Cloudy
12:53 PM 91.0 °F 99.3 °F 73.0 °F 55% 30.02 in 10.0 mi ENE 3.5 mph - N/A   Clear
1:53 PM 91.0 °F 96.6 °F 70.0 °F 50% 30.00 in 10.0 mi Calm Calm - N/A   Partly Cloudy
2:53 PM 86.0 °F 93.8 °F 73.9 °F 67% 29.98 in 10.0 mi SSE 9.2 mph - N/A   Scattered Clouds
3:20 PM 84.9 °F 91.4 °F 73.0 °F 67% 29.98 in 10.0 mi South 8.1 mph - N/A Thunderstorm Thunderstorm
3:39 PM 86.0 °F 93.8 °F 73.9 °F 67% 29.98 in 10.0 mi SSW 6.9 mph - N/A   Scattered Clouds
3:53 PM 87.1 °F 95.4 °F 73.9 °F 65% 29.97 in 10.0 mi SSW 6.9 mph - N/A Thunderstorm Scattered Clouds
4:53 PM 81.0 °F 85.8 °F 73.0 °F 77% 29.99 in 10.0 mi NNE 18.4 mph 26.5 mph N/A Thunderstorm Overcast
4:58 PM 79.0 °F - 72.0 °F 79% 29.99 in 10.0 mi NNE 18.4 mph 26.5 mph N/A Thunderstorm Thunderstorm
5:26 PM 75.0 °F - 72.0 °F 90% 29.98 in 1.5 mi ENE 19.6 mph 29.9 mph 0.15 in Rain , Thunderstorm Heavy Thunderstorms and Rain
5:31 PM 75.0 °F - 73.0 °F 94% 29.98 in 0.8 mi ENE 19.6 mph 27.6 mph 0.29 in Rain , Thunderstorm Heavy Thunderstorms and Rain
5:44 PM 75.0 °F - 73.9 °F 96% 30.00 in 3.0 mi NE 8.1 mph - 0.36 in Rain , Thunderstorm Thunderstorms and Rain
5:53 PM 75.0 °F - 73.9 °F 96% 30.00 in 4.0 mi NE 6.9 mph - 0.39 in Rain , Thunderstorm Heavy Thunderstorms and Rain
6:00 PM 75.0 °F - 73.0 °F 94% 30.00 in 4.0 mi East 8.1 mph - 0.02 in Rain , Thunderstorm Thunderstorms and Rain
6:30 PM 75.0 °F - 73.0 °F 94% 29.98 in 7.0 mi ENE 6.9 mph - 0.06 in Rain Light Rain
6:45 PM 75.0 °F - 73.9 °F 96% 29.98 in 4.0 mi NNE 4.6 mph - 0.12 in Rain , Thunderstorm Rain
6:53 PM 75.0 °F - 73.0 °F 94% 29.98 in 5.0 mi NE 4.6 mph - 0.14 in Rain , Thunderstorm Rain
7:00 PM 75.0 °F - 73.0 °F 94% 29.97 in 6.0 mi ENE 6.9 mph - 0.02 in Rain Rain
7:53 PM 75.0 °F - 73.0 °F 94% 29.96 in 10.0 mi ENE 8.1 mph - 0.05 in   Scattered Clouds
8:53 PM 75.0 °F - 73.9 °F 96% 29.96 in 10.0 mi NE 3.5 mph - N/A   Clear
9:53 PM 75.9 °F - 73.9 °F 94% 29.98 in 10.0 mi ENE 5.8 mph - N/A   Clear
10:53 PM 75.9 °F - 75.0 °F 97% 29.97 in 10.0 mi East 6.9 mph - N/A   Clear
11:18 PM 75.9 °F - 75.0 °F 97% 29.98 in 10.0 mi ENE 5.8 mph - N/A   Mostly Cloudy
11:37 PM 75.9 °F - 73.9 °F 94% 29.98 in 10.0 mi East 8.1 mph - N/A   Overcast
11:46 PM 75.9 °F - 73.9 °F 94% 29.97 in 10.0 mi East 9.2 mph - N/A   Overcast
11:53 PM 75.9 °F - 73.9 °F 94% 29.97 in 10.0 mi East 6.9 mph - N/A   Mostly Cloudy
11:56 PM 75.9 °F - 73.9 °F 94% 29.97 in 10.0 mi East 6.9 mph - N/A   Mostly Cloudy